Manhattan, KS

6:56 AM CDT on March 27, 2017 (GMT -0500)
Manhattan Regional

Weather History for KMHK - November, 2013

Change the Weather History Date:

Sunday, November 3, 2013

  Actual Average Record
Temperature  
Mean Temperature 52 °F 48 °F  
Max Temperature 63 °F 61 °F 80 °F (2015)
Min Temperature 41 °F 35 °F 24 °F (1999)
Degree Days  
Heating Degree Days 13 17  
Month to date heating degree days 45 50  
Since 1 July heating degree days 397 449  
Cooling Degree Days 0 0  
Month to date cooling degree days 0 0  
Year to date cooling degree days 1513 1361  
Growing Degree Days 2 (Base 50)    
Moisture  
Dew Point 35 °F    
Average Humidity 55    
Maximum Humidity 70    
Minimum Humidity 39    
Precipitation  
Precipitation 0.00 in 0.08 in 0.08 in (1998)
Month to date precipitation 0.02 0.24  
Year to date precipitation 28.08 30.17  
Sea Level Pressure  
Sea Level Pressure 29.94 in    
Wind  
Wind Speed 16 mph (South)    
Max Wind Speed 29 mph    
Max Gust Speed 38 mph    
Visibility 10 miles    
Events      
T = Trace of Precipitation, MM = Missing Value Source: NWS Daily Summary

Daily Weather History Graph

Daily Weather History Graph

Search for Another Location

Airport or City:

Trip Planner

Search our weather history database for the weather conditions in past years. The results will help you decide how hot, cold, wet, or windy it might be!

Date:

Astronomy

Nov. 03, 2013 Rise Set
Actual Time 6:56 AM CST 5:23 PM CST
Civil Twilight 6:28 AM CST 5:51 PM CST
Nautical Twilight 5:57 AM CST 6:22 PM CST
Astronomical Twilight 5:25 AM CST 6:53 PM CST
Moon 7:01 AM CST (11/3) 5:39 PM CST (11/3)
Length of Visible Light 11h 22m
Length of Day
10h 26m
New Moon, 0% of the Moon is Illuminated
Nov 3
New Moon
Nov 9
First Quarter
Nov 17
Full
Nov 25
Last Quarter
Dec 2
New

Hourly Weather History & Observations

Time (CST) Temp. Windchill Dew Point Humidity Pressure Visibility Wind Dir Wind Speed Gust Speed Precip Events Conditions
12:52 AM 41.0 °F 38.0 °F 32.0 °F 70% 30.12 in 10.0 mi South 4.6 mph - N/A   Clear
1:52 AM 43.0 °F 39.5 °F 32.0 °F 65% 30.12 in 10.0 mi South 5.8 mph - N/A   Clear
1:52 AM 44.1 °F 39.5 °F 30.9 °F 60% 30.10 in 10.0 mi South 8.1 mph - N/A   Clear
2:52 AM 45.0 °F 39.3 °F 32.0 °F 60% 30.09 in 10.0 mi South 11.5 mph 17.3 mph N/A   Clear
3:52 AM 44.1 °F 39.0 °F 32.0 °F 63% 30.08 in 10.0 mi South 9.2 mph - N/A   Clear
4:52 AM 45.0 °F 38.9 °F 32.0 °F 60% 30.06 in 10.0 mi South 12.7 mph - N/A   Clear
5:52 AM 45.0 °F 37.9 °F 32.0 °F 60% 30.05 in 10.0 mi South 16.1 mph 20.7 mph N/A   Clear
6:52 AM 46.0 °F 39.3 °F 32.0 °F 58% 30.04 in 10.0 mi South 16.1 mph 24.2 mph N/A   Clear
7:52 AM 46.9 °F - 33.1 °F 59% 30.03 in 10.0 mi South 16.1 mph 27.6 mph N/A   Clear
8:52 AM 50.0 °F - 34.0 °F 54% 30.01 in 10.0 mi South 15.0 mph 24.2 mph N/A   Clear
9:52 AM 53.1 °F - 34.0 °F 48% 30.00 in 10.0 mi South 13.8 mph 26.5 mph N/A   Clear
10:52 AM 55.9 °F - 34.0 °F 44% 29.97 in 10.0 mi South 24.2 mph 38.0 mph N/A   Clear
11:52 AM 57.0 °F - 35.1 °F 44% 29.94 in 10.0 mi South 19.6 mph 32.2 mph N/A   Clear
12:52 PM 59.0 °F - 35.1 °F 41% 29.88 in 10.0 mi South 21.9 mph 34.5 mph N/A   Clear
1:52 PM 60.1 °F - 35.1 °F 39% 29.83 in 10.0 mi South 18.4 mph 38.0 mph N/A   Clear
2:52 PM 63.0 °F - 37.0 °F 38% 29.83 in 10.0 mi South 20.7 mph 31.1 mph N/A   Clear
3:52 PM 61.0 °F - 37.0 °F 41% 29.81 in 10.0 mi SSE 19.6 mph 31.1 mph N/A   Clear
4:52 PM 59.0 °F - 37.0 °F 44% 29.79 in 10.0 mi SSE 19.6 mph 28.8 mph N/A   Clear
5:52 PM 57.9 °F - 37.9 °F 47% 29.79 in 10.0 mi South 16.1 mph 32.2 mph N/A   Clear
6:52 PM 55.9 °F - 37.9 °F 51% 29.81 in 10.0 mi South 16.1 mph 23.0 mph N/A   Clear
7:52 PM 55.0 °F - 37.9 °F 53% 29.79 in 10.0 mi South 25.3 mph 36.8 mph N/A   Clear
8:52 PM 55.9 °F - 37.0 °F 49% 29.80 in 10.0 mi South 20.7 mph 28.8 mph N/A   Clear
9:52 PM 55.9 °F - 37.9 °F 51% 29.82 in 10.0 mi South 15.0 mph 28.8 mph N/A   Mostly Cloudy
10:52 PM 55.0 °F - 37.9 °F 53% 29.81 in 10.0 mi South 15.0 mph 20.7 mph N/A   Clear